This is the latest recevied weather packets stored in our database for station/object KI5NXU. If no packets are shown the sender has not sent any weather packets the latest 10 day(s).
| Time | Temp. | Humidity | Pressure | Rain* | Wind** | Luminosity | Snow |
|---|---|---|---|---|---|---|---|
| 1777947056 | 25.56° C | 68% | 1003.8 hPa | 0 mm | - | 0 W/m² | - |
| 1777946756 | 25° C | 69% | 1003.4 hPa | 0 mm | - | 0 W/m² | - |
| 1777946453 | 25° C | 69% | 1004 hPa | 0 mm | - | 0 W/m² | - |
| 1777946150 | 25.56° C | 69% | 1003.5 hPa | 0 mm | - | 0 W/m² | - |
| 1777945847 | 25° C | 69% | 1003.8 hPa | 0 mm | - | 0 W/m² | - |
| 1777945543 | 25° C | 70% | 1003.9 hPa | 0 mm | - | 0 W/m² | - |
| 1777945241 | 25° C | 70% | 1004.1 hPa | 0 mm | - | 0 W/m² | - |
| 1777944938 | 25° C | 70% | 1003.9 hPa | 0 mm | - | 0 W/m² | - |
| 1777944635 | 25° C | 70% | 1003.7 hPa | 0 mm | - | 0 W/m² | - |
| 1777944333 | 25.56° C | 69% | 1003.7 hPa | 0 mm | - | 0 W/m² | - |
| 1777944030 | 25.56° C | 69% | 1003.9 hPa | 0 mm | - | 0 W/m² | - |
| 1777943725 | 25.56° C | 69% | 1003.9 hPa | 0 mm | - | 0 W/m² | - |
| 1777943423 | 25.56° C | 68% | 1003.9 hPa | 0 mm | - | 1 W/m² | - |
| 1777943118 | 25.56° C | 68% | 1003.9 hPa | 0 mm | - | 3 W/m² | - |
| 1777942815 | 25.56° C | 67% | 1004.1 hPa | 0 mm | - | 6 W/m² | - |
| 1777942511 | 26.11° C | 67% | 1004.2 hPa | 0 mm | - | 10 W/m² | - |
| 1777942209 | 26.11° C | 67% | 1004.1 hPa | 0 mm | - | 15 W/m² | - |
| 1777941906 | 26.11° C | 66% | 1004 hPa | 0 mm | - | 19 W/m² | - |
| 1777941602 | 26.67° C | 66% | 1004.1 hPa | 0 mm | - | 23 W/m² | - |
| 1777941299 | 26.67° C | 65% | 1004.2 hPa | 0 mm | - | 31 W/m² | - |
| 1777940996 | 26.67° C | 65% | 1004.2 hPa | 0 mm | - | 36 W/m² | - |
| 1777940692 | 26.67° C | 64% | 1004.2 hPa | 0 mm | - | 44 W/m² | - |
| 1777940391 | 26.67° C | 64% | 1004.2 hPa | 0 mm | - | 52 W/m² | - |
| 1777940088 | 27.22° C | 64% | 1004.4 hPa | 0 mm | - | 56 W/m² | - |
| 1777939784 | 27.22° C | 63% | 1004.4 hPa | 0 mm | - | 58 W/m² | - |
* Rain latest hour (hover to see other rain measurements)
** Current wind speed in m/s (hover to see current wind gust speed)